Temp
67 68 64 65 56 50 45 51 53 56 56 61 63 61 58 58 61 53 66 70 70 70 73 73 75 77 77 76 76 76 76 77 77 77 77 77 76 76 76 76 76 77 77 77 76 75 73 73 72
66 73 65 56 49 44 47 52 55 57 61 61 62 61 59 58 64 64 64 71 71 71 73 73 73 76 76 76 75 75 76 76 77 77 77 76 76 76 77 76 76 76 76 76 75 74 73 72 71
70 70 60 52 45 45 48 53 54 60 61 61 59 62 60 61 63 66 68 71 69 69 72 73 73 75 76 75 75 75 76 76 77 77 77 77 76 76 75 75 75 76 76 75 74 73 72 71 71
67 64 59 51 46 51 54 55 57 58 61 62 60 58 62 65 67 68 70 70 67 68 71 71 73 75 75 75 75 75 76 76 76 77 77 77 76 75 74 74 75 75 74 74 73 72 71 70 70
62 57 49 46 48 54 53 58 58 58 58 59 61 58 59 65 64 64 66 68 66 67 68 70 73 74 75 75 75 75 76 76 76 76 77 77 76 75 75 74 75 74 74 74 73 71 70 69 69
58 54 46 43 48 56 56 59 58 57 57 60 58 58 59 63 63 65 67 65 67 66 68 70 69 71 73 74 74 75 75 75 75 76 76 76 75 75 74 73 74 74 73 73 72 70 69 68 67
55 49 45 43 47 52 58 60 56 56 55 58 61 55 59 62 67 63 64 63 66 67 67 68 69 70 69 70 71 72 73 74 74 74 74 74 74 74 73 72 73 74 73 72 71 69 68 67 67
56 52 45 44 49 51 59 61 60 58 58 64 63 55 56 62 66 62 61 63 63 65 66 67 67 68 69 70 67 69 70 71 71 71 70 69 70 70 70 69 70 73 72 71 70 68 68 67 65
57 48 44 48 50 53 59 59 62 60 58 58 63 60 62 63 63 59 58 61 61 64 63 65 66 67 67 67 67 65 67 68 68 68 66 65 65 66 65 65 68 71 71 71 69 68 67 65 63
53 45 50 55 53 52 58 55 56 58 58 56 57 64 64 59 59 61 59 60 59 61 62 62 64 66 66 68 67 66 69 68 69 68 66 65 65 63 63 62 65 68 68 69 69 68 65 58 51
52 49 54 58 58 57 58 59 56 53 55 60 59 61 64 60 59 61 59 58 58 59 60 62 63 65 65 66 66 65 68 67 65 64 64 63 65 63 61 59 60 60 61 59 61 59 52 50 49
50 58 58 60 59 57 55 59 58 56 60 64 61 59 60 60 56 53 53 53 53 57 58 61 62 62 64 65 65 65 67 67 67 65 63 65 63 62 61 60 59 56 55 54 53 50 49 49 50
52 55 59 61 59 57 58 58 56 58 62 62 62 59 54 53 52 52 53 52 52 53 54 55 58 61 63 63 62 63 66 67 66 62 63 63 63 62 61 59 58 55 53 51 50 49 48 47 49
55 56 58 59 59 57 58 53 54 62 58 60 62 53 50 51 50 50 50 50 51 53 53 54 56 59 61 62 61 62 63 63 62 62 62 62 64 62 59 58 57 53 52 50 49 48 46 46 47
55 53 55 55 55 55 56 51 54 62 59 58 53 47 49 49 49 47 49 49 49 50 52 53 56 56 59 61 60 60 60 60 60 61 61 61 62 62 60 57 56 56 51 50 48 47 46 44 46
48 46 43 54 54 53 54 48 59 62 57 53 47 44 46 47 47 47 48 48 48 48 49 52 55 54 57 58 59 60 59 59 59 60 61 61 61 60 59 57 57 56 54 49 47 45 44 43 43
42 39 42 49 55 53 51 47 58 61 56 49 45 45 46 45 45 46 46 46 46 46 48 50 52 52 53 55 56 57 58 57 58 60 61 61 60 59 58 57 56 55 53 51 47 44 45 42 42
40 39 43 43 50 49 47 49 54 59 54 47 44 43 43 43 43 46 46 46 46 45 47 48 50 50 52 52 54 55 55 58 59 59 59 60 59 57 56 55 54 53 51 49 45 45 42 42 42
44 42 42 46 53 48 49 47 51 56 49 45 43 43 43 43 45 45 45 44 44 45 46 46 47 47 49 48 47 49 48 50 56 57 57 58 58 57 56 54 53 51 50 50 49 44 43 41 40
44 41 42 46 51 48 47 47 52 51 51 48 45 42 42 42 42 44 43 43 43 43 43 45 45 45 46 47 46 47 46 47 51 54 54 54 56 55 55 53 51 50 48 48 47 47 41 41 40
42 41 41 44 46 46 41 41 48 45 45 46 44 43 43 41 40 40 41 40 42 41 41 44 44 45 44 45 46 45 45 44 45 45 46 47 50 52 52 52 51 50 49 48 47 46 45 42 38
40 48 47 44 39 35 40 31 40 45 41 41 40 38 38 39 40 41 40 40 40 39 41 42 44 44 45 44 43 41 40 38 39 39 41 43 44 44 45 46 49 49 47 47 46 47 46 44 42
45 45 44 41 37 33 35 32 37 41 37 38 37 38 38 39 39 39 39 40 39 39 38 39 41 42 42 42 42 41 39 38 39 39 40 40 41 41 41 41 42 42 45 46 45 45 44 44 43
47 44 41 37 35 27 36 36 33 38 41 37 38 38 39 38 38 39 40 40 38 37 37 38 39 39 40 40 40 39 37 38 38 37 37 38 39 40 40 40 38 39 39 39 42 43 43 43 44
43 39 29 27 24 27 35 31 37 40 40 42 38 36 37 38 38 37 37 37 37 36 36 39 37 37 37 38 37 37 37 37 36 36 35 35 36 36 36 37 36 37 37 37 37 37 38 40 41
41 42 32 26 22 27 32 30 38 37 38 40 39 38 38 40 41 39 38 38 37 36 36 36 35 35 35 35 35 35 35 36 35 34 34 34 34 34 35 35 35 35 35 36 36 34 34 34 34
40 36 41 33 22 22 31 34 37 38 36 37 37 38 37 38 38 38 39 38 38 37 37 37 35 35 35 35 34 33 34 33 32 32 32 32 32 36 34 33 33 33 33 33 32 32 32 31 32
42 45 32 30 21 16 27 29 32 34 34 35 35 35 36 37 37 37 37 37 37 37 37 36 36 35 34 34 33 33 33 33 32 31 30 30 31 31 31 31 32 32 32 31 30 30 31 31 32
38 36 37 36 30 22 17 27 37 38 38 36 35 36 36 36 37 37 37 38 38 38 37 36 35 35 34 34 33 32 32 32 31 31 30 30 29 30 30 30 29 30 30 30 29 29 30 30 30
40 39 37 29 26 27 27 30 40 40 39 38 37 38 38 39 38 37 36 35 35 35 35 35 34 35 34 34 33 32 31 31 30 29 30 29 29 29 29 29 29 29 29 29 27 29 28 28 30
MSLP
1014.78 1014.46 1014.58 1014.96 1016.61 1017.32 1017.03 1016.10 1015.13 1014.62 1014.27 1013.87 1013.73 1013.92 1014.24 1014.37 1014.63 1015.21 1014.47 1014.44 1014.57 1014.95 1015.41 1015.87 1015.97 1016.19 1016.49 1016.81 1017.09 1017.39 1017.66 1017.90 1018.11 1018.28 1018.47 1018.63 1018.74 1018.79 1018.91 1018.98 1019.03 1019.09 1019.21 1019.41 1019.58 1019.76 1019.92 1019.85 1019.88
1014.93 1014.55 1015.04 1016.04 1017.22 1017.84 1017.28 1015.80 1014.97 1014.38 1013.88 1013.68 1013.67 1013.85 1014.15 1014.38 1014.38 1014.56 1014.57 1014.44 1014.46 1014.69 1015.15 1015.66 1016.01 1016.15 1016.35 1016.60 1016.94 1017.26 1017.56 1017.78 1018.01 1018.31 1018.53 1018.67 1018.72 1018.82 1018.95 1019.03 1019.13 1019.21 1019.34 1019.59 1019.90 1020.08 1020.10 1020.21 1020.17
1014.82 1014.95 1016.25 1016.86 1017.86 1017.60 1016.63 1015.52 1014.76 1014.22 1013.88 1013.78 1013.87 1013.85 1014.04 1014.16 1014.29 1014.42 1014.18 1014.27 1014.55 1014.83 1015.03 1015.40 1015.81 1016.22 1016.58 1016.87 1017.01 1017.22 1017.54 1017.78 1017.97 1018.18 1018.37 1018.56 1018.75 1018.92 1019.13 1019.21 1019.32 1019.43 1019.44 1019.88 1020.06 1020.24 1020.30 1020.47 1020.47
1015.25 1015.83 1017.07 1017.22 1017.36 1016.38 1015.70 1015.09 1014.55 1014.26 1014.03 1013.89 1013.95 1014.15 1014.02 1013.88 1014.01 1013.90 1013.95 1014.17 1014.61 1014.91 1015.10 1015.34 1015.62 1015.98 1016.39 1016.83 1017.26 1017.53 1017.67 1017.82 1018.00 1018.18 1018.36 1018.60 1018.84 1019.12 1019.34 1019.47 1019.55 1019.67 1019.79 1020.18 1020.26 1020.42 1020.55 1020.61 1020.59
1016.01 1017.05 1017.78 1017.72 1017.01 1015.92 1015.22 1014.63 1014.33 1014.41 1014.35 1014.33 1014.29 1014.32 1014.38 1014.22 1014.36 1014.37 1014.42 1014.49 1014.66 1015.07 1015.18 1015.44 1015.67 1015.91 1016.17 1016.55 1016.90 1017.18 1017.52 1017.83 1018.05 1018.20 1018.41 1018.63 1018.85 1019.16 1019.30 1019.55 1019.57 1019.67 1019.88 1020.29 1020.45 1020.64 1020.80 1020.86 1020.80
1017.00 1017.75 1018.38 1018.10 1016.93 1015.87 1015.07 1014.57 1014.37 1014.57 1014.78 1014.50 1014.49 1014.55 1014.65 1014.53 1014.54 1014.51 1014.60 1014.73 1014.82 1015.20 1015.33 1015.50 1015.76 1016.02 1016.23 1016.54 1016.79 1017.02 1017.24 1017.52 1017.77 1018.07 1018.33 1018.53 1018.82 1019.12 1019.41 1019.75 1019.82 1019.87 1020.08 1020.39 1020.63 1020.83 1020.96 1021.10 1021.18
1017.26 1018.27 1018.47 1017.78 1016.86 1015.85 1015.09 1014.59 1014.56 1014.69 1014.74 1014.51 1014.38 1014.76 1014.80 1014.74 1014.58 1014.66 1014.78 1014.86 1014.81 1014.94 1015.25 1015.45 1015.59 1015.78 1016.07 1016.35 1016.55 1016.80 1017.11 1017.36 1017.55 1017.81 1018.13 1018.40 1018.64 1019.00 1019.38 1019.80 1020.03 1020.08 1020.27 1020.50 1020.73 1020.99 1021.11 1021.26 1021.34
1017.26 1018.22 1018.22 1017.46 1016.75 1015.92 1015.22 1014.92 1014.77 1014.83 1014.80 1014.53 1014.45 1014.81 1014.79 1014.67 1014.64 1014.98 1015.00 1014.88 1014.96 1015.10 1015.00 1015.17 1015.44 1015.72 1015.92 1016.14 1016.43 1016.71 1017.00 1017.31 1017.57 1017.86 1018.09 1018.35 1018.62 1018.87 1019.12 1019.51 1019.81 1019.95 1020.27 1020.54 1020.81 1021.04 1021.23 1021.40 1021.51
1017.15 1018.38 1018.23 1017.20 1016.48 1016.01 1015.52 1015.46 1015.15 1015.11 1015.12 1015.02 1014.76 1014.77 1014.76 1014.70 1014.98 1015.19 1015.23 1015.35 1015.33 1015.29 1015.26 1015.18 1015.34 1015.55 1015.84 1016.11 1016.33 1016.61 1016.82 1017.07 1017.32 1017.67 1017.99 1018.32 1018.64 1018.93 1019.23 1019.52 1019.74 1019.88 1020.14 1020.47 1020.82 1021.12 1021.29 1021.48 1021.65
1017.78 1018.52 1017.71 1016.79 1016.41 1016.26 1015.99 1016.03 1015.97 1015.78 1015.66 1015.23 1015.22 1015.03 1014.93 1015.04 1015.26 1015.49 1015.71 1015.68 1015.53 1015.27 1015.05 1015.06 1015.00 1015.17 1015.57 1015.90 1016.23 1016.62 1016.77 1016.90 1017.05 1017.30 1017.74 1018.18 1018.68 1019.05 1019.28 1019.51 1019.77 1019.98 1020.23 1020.41 1020.74 1021.07 1021.42 1021.73 1021.95
1017.75 1017.94 1017.31 1016.65 1016.42 1016.28 1016.09 1016.00 1016.09 1016.15 1016.13 1015.44 1015.79 1015.63 1015.56 1015.54 1015.91 1016.21 1016.36 1016.44 1016.24 1015.81 1015.39 1014.87 1014.68 1014.73 1015.03 1015.31 1015.64 1016.18 1016.56 1016.94 1017.23 1017.42 1017.73 1018.14 1018.56 1019.04 1019.44 1019.86 1020.08 1020.26 1020.42 1020.74 1020.90 1021.19 1021.74 1022.00 1022.07
1017.60 1017.12 1016.93 1016.42 1016.26 1016.41 1016.44 1016.25 1016.23 1016.29 1015.80 1015.44 1015.76 1016.29 1016.18 1016.48 1017.08 1017.57 1017.41 1017.13 1016.74 1016.33 1016.14 1015.39 1015.18 1015.04 1014.81 1015.10 1015.47 1015.78 1016.09 1016.51 1016.98 1017.39 1017.77 1018.04 1018.52 1019.01 1019.45 1019.84 1020.15 1020.50 1020.74 1021.00 1021.28 1021.62 1021.82 1021.96 1021.93
1017.31 1017.14 1016.84 1016.48 1016.30 1016.40 1016.30 1016.26 1016.53 1016.01 1015.48 1015.78 1016.07 1016.61 1017.33 1017.98 1018.28 1018.48 1018.32 1017.75 1017.27 1016.88 1016.50 1015.75 1014.97 1014.91 1014.86 1015.07 1015.36 1015.64 1015.91 1016.35 1016.67 1017.08 1017.52 1017.83 1018.37 1018.86 1019.27 1019.68 1020.12 1020.58 1020.93 1021.20 1021.59 1021.92 1022.23 1022.35 1022.22
1017.30 1017.21 1017.02 1016.63 1016.24 1016.29 1016.29 1016.31 1016.37 1015.26 1015.46 1016.19 1016.97 1018.03 1018.83 1019.22 1019.48 1019.21 1018.77 1018.54 1018.02 1017.47 1016.84 1016.07 1015.39 1014.75 1014.72 1015.10 1015.18 1015.56 1015.89 1016.16 1016.59 1016.90 1017.19 1017.52 1017.80 1018.48 1019.11 1019.55 1019.95 1020.46 1020.91 1021.31 1021.68 1021.99 1022.31 1022.46 1022.45
1017.44 1017.57 1017.27 1016.47 1016.24 1016.36 1016.26 1016.53 1016.18 1015.18 1015.60 1017.00 1018.11 1019.07 1019.54 1019.96 1019.99 1020.09 1019.99 1019.55 1019.08 1018.31 1017.54 1016.62 1015.67 1015.08 1014.50 1014.84 1015.25 1015.57 1015.90 1016.30 1016.64 1016.84 1017.09 1017.41 1017.70 1017.97 1018.54 1019.16 1019.74 1020.04 1020.70 1021.23 1021.79 1022.23 1022.58 1022.83 1022.80
1017.99 1018.17 1018.00 1016.69 1016.39 1016.39 1016.43 1016.39 1015.68 1015.33 1016.05 1017.91 1018.83 1019.75 1020.08 1020.38 1020.55 1020.63 1020.43 1020.00 1019.51 1018.93 1018.17 1017.40 1016.56 1015.61 1015.22 1015.15 1015.26 1015.78 1016.30 1016.60 1016.84 1017.04 1017.02 1017.25 1017.60 1017.86 1018.26 1018.81 1019.34 1019.67 1020.34 1021.00 1021.72 1022.32 1022.78 1022.99 1023.05
1018.79 1018.56 1018.31 1017.23 1016.33 1016.50 1016.66 1016.79 1015.81 1015.26 1016.65 1018.42 1019.56 1020.53 1020.99 1021.50 1021.46 1021.10 1020.90 1020.48 1020.00 1019.51 1018.79 1017.96 1017.27 1016.59 1016.08 1015.92 1015.95 1016.20 1016.51 1017.00 1017.11 1017.13 1017.25 1017.40 1017.66 1017.94 1018.29 1018.64 1018.89 1019.40 1020.12 1020.79 1021.32 1022.00 1022.30 1022.83 1023.12
1018.99 1018.96 1018.37 1017.63 1016.84 1016.77 1017.02 1016.75 1016.53 1015.93 1017.41 1018.78 1020.12 1021.08 1021.58 1021.76 1022.00 1021.88 1021.67 1021.14 1020.50 1019.91 1019.47 1018.85 1018.24 1017.58 1017.08 1016.84 1016.80 1017.13 1017.39 1017.51 1017.60 1017.84 1017.93 1017.97 1018.10 1018.29 1018.57 1018.89 1019.16 1019.51 1020.19 1020.86 1021.46 1021.67 1022.08 1022.18 1022.51
1018.42 1018.55 1018.34 1017.50 1016.82 1017.18 1016.85 1016.84 1016.60 1016.37 1017.92 1019.18 1020.29 1021.18 1022.18 1022.53 1022.62 1022.27 1021.78 1021.40 1021.19 1020.59 1020.10 1019.86 1019.37 1018.98 1018.24 1017.82 1018.12 1018.39 1018.78 1018.78 1018.67 1018.76 1018.85 1018.67 1018.70 1018.95 1019.14 1019.34 1019.64 1020.05 1020.53 1020.69 1021.07 1021.63 1022.16 1022.46 1022.58
1018.74 1018.88 1018.55 1017.93 1017.06 1017.26 1017.05 1017.17 1016.82 1017.03 1017.62 1018.80 1020.27 1021.57 1022.45 1023.16 1023.32 1023.00 1022.41 1022.07 1021.90 1021.70 1021.29 1020.80 1020.51 1020.25 1019.85 1019.43 1019.32 1019.29 1019.46 1019.70 1019.75 1019.78 1019.78 1019.88 1019.53 1019.48 1019.63 1019.97 1020.26 1020.40 1020.75 1021.24 1021.52 1021.70 1022.21 1022.42 1022.63
1018.76 1018.61 1018.48 1018.31 1017.70 1017.53 1017.67 1017.74 1017.28 1018.03 1018.99 1019.76 1021.19 1022.10 1022.72 1023.27 1023.76 1023.83 1023.29 1022.91 1022.41 1022.33 1022.40 1022.03 1021.70 1021.45 1021.24 1020.92 1020.49 1020.20 1020.22 1020.37 1020.43 1020.79 1020.96 1021.14 1020.89 1020.59 1020.52 1020.51 1020.51 1020.76 1021.13 1021.29 1021.55 1021.86 1022.06 1022.26 1022.60
1018.45 1017.75 1017.82 1018.29 1018.79 1018.61 1018.33 1018.31 1017.93 1018.14 1019.58 1020.79 1021.90 1022.85 1023.62 1023.80 1024.13 1024.26 1024.09 1024.02 1023.52 1023.52 1023.14 1022.78 1022.80 1022.69 1022.47 1022.17 1022.10 1022.18 1022.31 1022.50 1022.73 1022.31 1022.10 1021.94 1021.87 1021.88 1021.93 1021.80 1021.45 1021.27 1021.39 1021.53 1021.54 1021.71 1022.06 1022.35 1022.57
1017.90 1017.82 1018.19 1018.41 1019.09 1019.83 1019.58 1019.51 1017.87 1018.63 1020.10 1021.44 1022.66 1023.66 1024.52 1024.80 1024.89 1025.03 1024.74 1024.82 1024.80 1024.06 1024.43 1023.90 1023.65 1023.68 1023.84 1023.58 1023.41 1023.45 1023.66 1023.77 1023.72 1023.31 1022.97 1022.63 1022.52 1022.59 1022.65 1022.65 1022.56 1022.41 1022.09 1021.91 1021.86 1021.92 1022.06 1022.14 1022.33
1017.82 1018.59 1019.39 1020.03 1020.59 1020.68 1019.95 1020.15 1018.66 1019.10 1019.72 1021.43 1022.82 1023.74 1024.36 1024.94 1025.32 1025.60 1025.49 1025.48 1025.61 1025.28 1025.09 1024.87 1024.63 1024.78 1024.55 1024.28 1024.39 1024.62 1024.92 1024.70 1024.37 1024.13 1024.25 1024.19 1023.84 1023.56 1023.30 1023.28 1023.29 1023.07 1022.76 1022.62 1022.35 1022.15 1022.30 1022.28 1022.27
1017.91 1018.84 1020.37 1021.16 1021.64 1020.91 1020.20 1020.76 1018.87 1019.12 1019.66 1020.41 1022.15 1023.82 1024.49 1024.80 1025.10 1025.56 1025.67 1026.14 1025.97 1025.92 1025.97 1025.50 1025.56 1025.62 1025.78 1025.55 1025.56 1025.53 1025.58 1025.56 1025.67 1025.19 1025.33 1025.14 1024.87 1024.69 1024.53 1024.24 1023.89 1023.62 1023.34 1023.05 1022.87 1022.66 1022.48 1022.51 1022.58
1017.44 1018.15 1019.48 1020.79 1022.16 1021.36 1021.01 1020.49 1019.51 1020.27 1020.66 1021.24 1022.53 1023.37 1024.31 1024.70 1024.87 1025.07 1025.70 1025.93 1026.08 1026.31 1026.13 1025.87 1026.05 1026.02 1026.46 1026.43 1026.27 1026.29 1026.15 1026.03 1026.20 1026.17 1026.50 1026.21 1025.61 1025.26 1025.14 1024.92 1024.63 1024.41 1023.91 1023.49 1023.25 1023.14 1022.82 1022.58 1022.46
1017.49 1018.37 1018.82 1019.99 1021.59 1021.84 1020.33 1019.76 1020.21 1020.59 1021.41 1022.15 1023.07 1023.54 1024.24 1024.65 1024.90 1025.20 1025.49 1025.50 1025.86 1025.76 1025.91 1026.05 1026.61 1026.47 1026.13 1026.58 1026.78 1026.71 1026.55 1026.57 1026.54 1026.46 1026.43 1026.81 1026.65 1025.86 1025.39 1025.21 1025.24 1024.86 1024.34 1023.96 1023.74 1023.53 1022.98 1022.75 1022.47
1017.63 1018.32 1019.59 1020.80 1022.12 1021.95 1020.33 1019.95 1019.73 1020.68 1021.65 1022.45 1023.12 1023.70 1024.22 1024.60 1024.84 1024.94 1025.14 1025.47 1025.80 1025.95 1026.22 1026.40 1026.50 1026.68 1026.87 1027.17 1027.06 1026.90 1026.91 1026.90 1026.81 1026.63 1026.52 1026.60 1026.80 1026.36 1025.78 1025.38 1025.21 1025.18 1024.89 1024.54 1024.06 1023.57 1023.25 1022.84 1022.45
1018.16 1018.65 1019.38 1020.22 1020.97 1021.23 1021.05 1019.81 1018.76 1019.50 1020.31 1021.17 1022.32 1022.97 1023.41 1023.76 1023.80 1024.26 1024.65 1024.99 1025.42 1025.89 1026.14 1026.23 1026.40 1026.75 1027.00 1026.84 1026.68 1026.71 1026.97 1026.81 1026.86 1026.93 1026.99 1026.79 1026.71 1026.51 1026.12 1025.73 1025.40 1025.38 1025.06 1024.83 1024.34 1023.88 1023.30 1022.75 1022.16
1017.62 1018.38 1019.21 1020.28 1020.80 1020.68 1020.43 1019.32 1019.04 1019.42 1019.99 1020.86 1021.66 1022.23 1022.62 1022.94 1023.50 1024.05 1024.62 1025.18 1025.58 1025.77 1025.93 1026.17 1026.42 1026.48 1026.40 1026.43 1026.67 1026.88 1027.12 1027.28 1027.34 1027.10 1027.02 1026.90 1026.94 1026.48 1026.23 1025.85 1025.43 1025.07 1024.98 1024.68 1024.21 1023.68 1023.23 1022.70 1022.00
Wind_Speed
6 6 2 6 6 6 1 2 1 1 1 2 1 2 2 1 2 4 3 6 7 10 12 13 17 17 15 13 13 13 12 11 10 10 9 8 7 5 5 4 6 10 10 9 8 8 8 9 8
4 3 5 3 7 5 4 4 1 1 3 2 1 2 2 0 2 1 2 7 8 10 12 12 13 16 15 14 14 13 12 12 12 11 9 9 8 7 6 6 7 8 10 9 5 6 7 7 6
4 3 5 5 4 4 4 3 2 2 1 1 1 1 2 2 1 6 5 7 8 8 11 12 15 15 14 13 14 14 13 12 12 11 12 11 10 10 7 8 9 7 11 5 6 6 6 5 5
4 6 5 6 2 3 6 5 4 2 2 2 2 1 3 0 4 6 6 7 8 7 9 11 18 17 16 15 14 13 13 13 13 12 11 12 11 10 9 7 8 7 10 5 5 5 4 4 5
5 4 5 3 3 1 1 3 2 3 2 3 4 2 3 4 3 2 4 5 8 7 7 9 16 17 17 16 16 15 14 13 12 13 12 13 13 13 9 3 5 7 8 3 3 3 4 4 5
5 4 5 1 4 4 3 3 2 2 2 4 3 4 4 2 2 5 5 5 6 7 6 7 12 12 14 15 15 15 15 14 13 12 14 13 14 12 11 7 6 6 6 4 4 3 4 4 4
6 4 4 3 2 2 3 1 3 2 1 1 2 2 3 4 6 3 5 4 5 7 7 6 8 11 13 13 13 13 14 14 13 12 12 12 13 13 13 10 7 6 5 6 6 4 4 4 4
5 5 1 2 2 2 4 5 0 2 3 4 4 2 4 4 6 3 3 5 5 5 6 8 7 7 8 9 12 12 12 12 11 10 8 10 11 12 14 12 8 9 9 8 7 6 6 4 3
3 5 1 3 2 3 4 5 4 2 2 2 3 3 3 2 4 2 2 2 3 3 7 6 7 7 6 5 7 10 13 14 14 12 10 9 5 7 9 8 9 11 10 10 9 7 6 4 2
5 4 6 3 1 2 4 1 2 4 7 4 3 5 4 1 4 6 6 7 6 7 7 7 8 9 8 7 6 8 7 5 5 6 6 5 5 5 6 7 9 8 9 10 11 9 7 4 1
3 4 3 3 3 0 4 7 2 2 6 9 7 7 7 3 5 7 7 6 7 6 5 7 10 9 10 8 6 4 5 3 2 4 5 5 5 4 3 2 3 3 6 3 5 4 3 3 2
2 7 5 4 1 2 3 5 8 5 9 7 8 5 6 9 9 8 7 8 10 8 7 8 7 6 9 5 6 6 6 5 5 4 5 5 4 4 4 3 4 3 3 4 4 3 4 4 4
4 4 4 7 8 5 3 7 5 10 10 8 4 9 10 9 9 7 7 7 6 9 10 9 6 7 6 6 4 5 7 8 8 5 6 5 4 5 4 4 4 3 3 4 4 4 3 3 3
1 3 6 8 9 5 6 1 2 9 1 6 10 10 10 12 10 9 13 12 12 10 10 11 9 6 5 6 6 5 4 5 5 4 6 6 7 6 5 4 5 4 4 4 4 4 4 4 3
1 6 8 6 3 4 7 2 7 13 6 6 9 8 9 10 11 11 9 9 11 10 11 11 11 10 6 6 4 4 4 4 4 4 6 6 5 7 7 5 5 5 4 5 3 2 1 1 2
2 3 4 4 4 1 3 9 7 10 7 8 9 7 8 9 8 7 8 8 10 10 13 12 11 10 6 4 4 3 3 2 2 3 4 5 5 6 5 6 6 6 5 5 4 3 2 2 3
3 3 5 8 1 3 3 7 10 9 4 7 7 6 7 7 9 9 8 8 8 8 10 12 13 13 10 8 6 6 6 3 2 1 1 3 4 5 4 4 4 6 5 4 5 2 4 3 2
6 4 5 6 3 1 3 10 10 15 8 8 7 6 7 8 7 7 9 10 9 9 10 11 10 13 8 5 7 7 7 7 6 6 5 4 1 3 3 2 3 4 4 3 3 3 2 3 4
3 4 6 5 7 4 9 7 10 11 6 8 7 7 6 7 4 6 8 9 11 13 14 14 14 13 9 5 4 4 4 4 7 8 11 8 5 4 1 0 2 3 3 6 7 3 4 2 3
5 5 8 6 7 5 6 7 11 5 4 5 11 8 7 5 6 7 8 11 12 12 12 14 14 14 11 6 3 4 2 4 5 7 10 13 10 7 4 3 3 1 2 2 3 3 2 2 4
4 7 4 8 4 4 3 7 8 4 7 11 9 7 7 6 5 6 10 10 11 14 14 13 14 14 12 11 6 4 4 4 5 8 7 10 12 13 11 7 4 2 1 2 3 3 5 4 3
5 8 8 5 3 5 2 7 6 4 5 5 6 6 6 6 6 6 7 10 11 10 10 12 13 14 13 13 10 12 7 5 4 4 5 7 11 12 12 12 10 6 2 3 4 3 3 1 4
8 3 3 1 3 1 4 2 7 5 3 5 5 6 5 5 6 6 7 8 7 8 8 8 11 13 12 13 11 8 9 5 5 6 10 10 9 11 12 10 9 8 6 5 5 4 4 4 3
3 4 7 5 3 2 8 8 2 4 4 6 6 7 7 7 6 6 6 7 6 7 8 8 11 11 11 11 12 12 11 10 9 10 9 7 7 9 12 11 8 7 7 7 6 5 5 5 5
4 6 3 5 2 7 3 2 7 4 2 10 16 9 7 7 7 6 7 6 6 8 7 8 9 11 10 11 12 10 9 10 10 9 7 8 7 7 10 10 10 8 8 7 6 5 5 5 5
8 9 8 8 4 6 1 7 4 3 6 11 11 9 7 7 6 7 6 5 6 6 6 7 8 9 7 5 8 7 8 6 7 8 6 6 6 6 8 9 8 8 8 9 7 4 4 4 3
4 4 2 5 2 2 6 3 3 5 6 8 8 8 8 6 6 7 6 6 6 6 6 7 6 6 7 7 5 6 6 6 5 5 4 5 5 6 8 8 9 10 9 7 7 5 6 5 5
2 4 3 3 2 5 5 5 6 8 8 8 8 8 7 6 7 7 7 7 4 5 5 6 5 5 4 4 4 4 5 6 6 6 6 6 5 6 6 7 7 8 9 8 7 6 6 6 5
2 3 2 3 5 6 2 7 3 7 11 14 9 9 10 10 11 9 7 6 7 6 6 6 5 5 4 4 4 6 6 7 6 6 5 5 5 6 6 6 6 6 7 8 7 7 8 8 8
1 5 6 6 6 4 3 10 1 5 7 9 10 11 10 10 8 7 7 7 7 7 6 6 6 5 4 4 4 5 4 5 5 5 6 6 7 6 6 6 7 8 8 7 6 9 8 8 11
Wind_Direction
327 319 74 42 56 65 306 266 118 57 19 237 264 116 172 205 151 210 290 179 145 150 167 176 175 173 172 164 157 159 158 159 158 155 156 154 149 144 142 122 133 124 116 112 112 110 102 100 94
344 359 40 78 83 75 285 274 103 228 221 157 67 65 63 127 220 183 110 192 168 155 165 174 180 177 175 168 166 164 167 168 166 168 171 168 155 139 149 154 150 142 123 99 110 108 98 87 79
342 43 76 87 108 155 183 246 248 276 293 161 74 33 150 213 17 178 229 159 152 156 168 176 173 178 178 178 175 172 174 175 175 177 180 170 156 127 118 135 131 127 104 125 119 110 103 86 72
21 9 29 80 176 229 163 222 232 129 340 347 127 21 299 245 175 203 178 150 148 159 167 175 177 177 178 179 182 183 181 181 185 186 177 162 154 140 127 130 139 127 115 125 129 115 98 81 71
37 56 48 51 288 256 204 221 68 26 342 352 345 301 291 358 33 98 160 153 155 170 170 173 180 180 180 180 183 182 183 189 196 188 183 184 173 164 143 188 174 151 124 153 144 123 103 79 68
38 91 55 16 293 326 307 285 75 51 40 331 10 331 285 324 171 195 176 181 159 169 177 173 181 180 182 184 187 185 185 188 198 198 193 196 181 173 147 193 201 188 139 190 172 149 117 96 68
106 82 183 218 251 212 242 314 110 149 35 260 193 302 289 274 262 190 194 190 175 169 169 181 186 187 183 185 187 187 190 194 198 198 203 204 187 160 159 172 204 210 191 201 170 162 142 129 107
102 92 38 277 314 304 317 336 270 36 294 324 156 247 302 255 188 218 201 209 203 191 182 181 183 192 196 193 191 191 192 195 194 205 207 199 176 167 160 164 199 192 200 202 175 173 172 155 118
85 57 236 240 57 294 332 23 339 318 344 311 295 182 251 28 134 194 250 287 265 229 204 189 186 190 193 194 200 201 198 198 195 200 202 187 169 166 157 165 189 189 187 195 183 185 176 144 136
81 108 225 218 139 301 293 110 314 351 325 294 264 314 282 235 195 218 232 237 236 230 225 199 191 192 184 197 201 211 213 217 200 182 182 161 167 162 163 167 184 187 179 184 185 186 154 120 105
154 195 230 221 192 299 291 318 359 70 306 261 274 281 309 267 274 303 310 294 276 305 303 227 201 194 188 195 187 178 202 213 211 191 167 157 155 149 147 152 181 173 175 165 172 160 134 168 169
147 245 224 269 352 44 285 313 320 203 236 267 296 286 298 353 57 29 33 17 10 15 345 298 256 213 199 184 185 191 193 194 213 199 177 164 156 167 165 171 177 180 169 165 154 159 173 201 211
188 257 283 277 279 241 238 262 237 272 262 286 352 60 55 44 28 8 358 13 7 5 341 337 289 214 209 187 179 178 190 198 202 169 173 166 160 173 166 177 170 176 162 167 168 172 192 229 219
176 258 261 272 267 243 220 352 147 277 199 333 48 70 50 44 20 12 14 7 4 351 348 335 334 272 198 202 176 185 177 182 174 172 181 182 171 174 173 171 179 171 175 173 175 181 192 213 206
264 314 327 270 276 217 151 280 225 248 315 62 70 78 64 46 32 25 7 6 354 345 337 355 344 331 199 189 188 161 173 156 169 186 182 183 176 180 171 166 176 179 173 162 152 157 148 256 300
352 32 346 289 142 122 121 267 258 274 279 58 105 91 79 58 47 18 9 11 2 356 358 349 357 4 16 98 104 90 100 129 164 200 208 194 190 180 162 169 182 179 164 160 158 159 174 223 221
349 212 207 310 263 130 134 247 275 291 42 81 116 93 73 47 29 20 9 7 9 0 2 8 7 12 19 41 51 57 70 56 45 275 197 188 178 182 171 176 175 152 160 175 168 155 160 185 217
208 214 234 224 269 85 225 248 269 284 97 141 125 96 77 70 43 19 9 11 14 16 15 15 19 18 12 32 52 51 50 43 43 34 23 17 59 151 174 168 145 137 162 160 169 162 162 171 172
186 193 222 252 251 189 243 241 259 261 116 144 145 118 95 76 42 27 30 26 22 26 27 21 20 8 17 18 32 36 47 12 46 43 36 32 24 22 359 248 132 139 184 200 190 129 179 199 141
256 256 258 280 269 168 274 275 266 300 273 180 143 121 108 85 37 29 35 36 32 33 26 28 28 19 16 14 7 52 74 45 47 38 34 19 17 24 39 26 338 176 143 175 184 171 159 206 179
217 210 225 237 312 280 324 301 270 63 67 75 72 101 103 107 83 30 39 33 43 38 23 27 27 28 23 12 10 14 30 29 28 30 35 28 21 18 17 16 37 41 316 233 211 215 203 210 226
260 217 208 222 133 230 104 274 287 178 117 94 111 98 100 100 68 48 39 41 42 30 31 36 34 32 28 23 36 45 51 52 7 19 24 28 31 36 27 16 11 6 348 263 238 226 236 145 222
234 162 180 133 153 14 298 293 248 121 169 166 139 118 110 89 78 59 56 56 38 45 31 31 42 40 30 36 39 48 52 42 29 27 33 29 27 29 25 22 17 14 5 345 318 292 230 210 214
123 67 33 42 73 295 222 190 249 177 228 144 140 136 126 112 91 70 58 55 41 34 39 34 45 42 38 46 44 48 46 45 44 37 33 22 19 20 22 18 14 8 10 5 349 328 296 269 257
114 91 326 334 346 232 184 184 250 294 307 179 150 138 134 133 125 107 79 63 58 50 36 49 46 49 34 41 41 42 49 48 44 41 35 29 21 18 8 8 9 7 358 357 356 347 328 313 292
181 163 168 210 210 250 347 244 264 2 44 101 125 138 144 143 139 120 124 107 88 84 76 72 59 58 52 58 44 39 45 50 43 34 22 19 25 16 2 2 3 359 2 1 357 346 334 322 298
191 191 188 111 95 73 213 267 166 95 81 105 132 145 159 156 146 147 156 142 144 126 102 94 89 81 64 59 63 53 51 57 56 48 44 14 356 359 3 2 352 349 350 354 353 343 336 328 299
121 155 69 360 209 249 273 256 222 198 173 170 177 172 171 161 168 180 169 157 146 130 120 108 109 101 95 93 72 65 52 38 32 28 25 16 339 347 351 351 348 339 337 337 343 335 323 325 308
146 217 205 162 159 190 232 259 247 173 182 187 184 187 183 190 195 189 181 167 153 152 160 154 140 133 127 105 76 54 32 24 17 16 360 352 332 330 334 327 318 310 312 314 319 313 310 316 304
177 200 174 188 245 242 189 251 284 163 167 162 188 192 203 205 192 178 169 166 170 170 163 170 169 149 126 103 78 56 42 21 8 358 346 344 326 321 315 317 321 318 311 304 293 299 295 289 300